Location: Unnamed
(48.8836°N, 1.0859°W)
Time: 13:40:55
(UTC+02:00)

ISS - Pass Details

Date: 02 October 2021
Orbit: 417 x 423 km, 51.6° (Epoch: 16 October)

Event Time Altitude Azimuth Distance (km) Brightness Sun altitude
Rises 21:01:53 0° 290° (WNW) 2,366 1.9 -14.1°
Reaches altitude 10° 21:04:01 10° 285° (WNW) 1,500 0.5 -14.5°
Maximum altitude 21:07:18 49° 209° (SSW) 545 -3.1 -15.0°
Enters shadow 21:08:55 25° 146° (SE) 883 -2.5 -15.3°
